Terminal Aerodrome Forecast
Issued by NWS Blacksburg, VA

Current Version | Previous Version | Graphics & Text | Print | Product List | Glossary On
Versions: 1 2 3 4 5 6 7 8 9 10 11 12 13 14 15 16 17 18 19 20 21 22 23 24 25 26 27 28 29 30 31 32 33 34 35 36 37 38 39 40 41 42 43 44 45 46 47 48 49 50
000
FTUS41 KRNK 061720
TAFBLF
TAF
KBLF 061720Z 0618/0718 30007G17KT P6SM VCSH SCT015 OVC035
     FM062200 27006KT P6SM VCSH OVC035
     FM070000 29005KT P6SM BKN035
     FM071400 26008KT P6SM BKN050=

USA.gov is the U.S. government's official web portal to all federal, state and local government web resources and services.